Lamar, CO

12:22 AM MDT on May 25, 2017 (GMT -0600)
Lamar Municipal

Weather History for KLAA - August, 2013

Change the Weather History Date:

Friday, August 23, 2013

  Actual Average Record
Temperature  
Mean Temperature 82 °F 74 °F  
Max Temperature 97 °F 89 °F 105 °F (1919)
Min Temperature 66 °F 59 °F 43 °F (1964)
Degree Days  
Heating Degree Days 0 0  
Month to date heating degree days 0 0  
Since 1 June heating degree days 16 22  
Since 1 July heating degree days 0 2  
Cooling Degree Days 17 9  
Month to date cooling degree days 246 258  
Year to date cooling degree days 1202 922  
Since 1 June cooling degree days 1061 862  
Growing Degree Days 32 (Base 50)    
Moisture  
Dew Point 52 °F    
Average Humidity 45    
Maximum Humidity 73    
Minimum Humidity 17    
Precipitation  
Precipitation 0.00 in 0.06 in 1.55 in (1946)
Month to date precipitation 2.31  
Year to date precipitation 6.62  
Sea Level Pressure  
Sea Level Pressure 29.86 in    
Wind  
Wind Speed 12 mph (SSW)    
Max Wind Speed 23 mph    
Max Gust Speed 30 mph    
Visibility 10 miles    
Events      
T = Trace of Precipitation, MM = Missing Value Source: NWS Daily Summary

Daily Weather History Graph

Daily Weather History Graph

Search for Another Location

Airport or City:

Trip Planner

Search our weather history database for the weather conditions in past years. The results will help you decide how hot, cold, wet, or windy it might be!

Date:

Astronomy

Aug. 23, 2013 Rise Set
Actual Time 6:13 AM MDT 7:32 PM MDT
Civil Twilight 5:45 AM MDT 8:00 PM MDT
Nautical Twilight 5:12 AM MDT 8:33 PM MDT
Astronomical Twilight 4:38 AM MDT 9:07 PM MDT
Moon 8:57 PM MDT (8/23) 9:06 AM MDT (8/23)
Length of Visible Light 14h 14m
Length of Day
13h 19m
Waning Gibbous, 91% of the Moon is Illuminated
Aug 23
Waning Gibbous
Aug 28
Last Quarter
Sep 5
New
Sep 12
First Quarter
Sep 19
Full

Hourly Weather History & Observations

Time (MDT) Temp. Heat Index Dew Point Humidity Pressure Visibility Wind Dir Wind Speed Gust Speed Precip Events Conditions
12:53 AM 75.9 °F - 59.0 °F 56% 29.91 in 9.0 mi North 10.4 mph - N/A   Mostly Cloudy
1:53 AM 73.9 °F - 55.9 °F 53% 29.92 in 10.0 mi NNW 18.4 mph 25.3 mph N/A   Clear
2:53 AM 73.9 °F - 53.1 °F 48% 29.89 in 10.0 mi North 16.1 mph - N/A   Clear
3:53 AM 72.0 °F - 54.0 °F 53% 29.89 in 10.0 mi North 6.9 mph - N/A   Clear
4:53 AM 69.1 °F - 55.0 °F 61% 29.90 in 10.0 mi SW 9.2 mph - N/A   Clear
5:53 AM 66.0 °F - 55.9 °F 70% 29.91 in 10.0 mi SW 8.1 mph - N/A   Clear
6:53 AM 66.9 °F - 57.9 °F 73% 29.93 in 10.0 mi SW 6.9 mph - N/A   Clear
7:53 AM 72.0 °F - 57.9 °F 61% 29.95 in 10.0 mi West 8.1 mph - N/A   Clear
8:53 AM 75.0 °F - 57.9 °F 55% 29.94 in 10.0 mi WNW 6.9 mph - N/A   Clear
9:53 AM 80.1 °F 80.2 °F 55.9 °F 43% 29.93 in 10.0 mi SSW 3.5 mph - N/A   Clear
10:53 AM 82.9 °F 81.9 °F 54.0 °F 37% 29.91 in 10.0 mi Calm Calm - N/A   Clear
11:53 AM 88.0 °F 86.1 °F 55.0 °F 32% 29.88 in 10.0 mi SSE 6.9 mph - N/A   Clear
12:53 PM 91.0 °F 88.9 °F 55.0 °F 29% 29.85 in 10.0 mi South 11.5 mph 17.3 mph N/A   Clear
1:53 PM 96.1 °F - 52.0 °F 22% 29.82 in 10.0 mi SW 12.7 mph 21.9 mph N/A   Clear
2:53 PM 97.0 °F - 48.9 °F 19% 29.79 in 10.0 mi South 18.4 mph 25.3 mph N/A   Clear
3:53 PM 96.1 °F - 48.0 °F 19% 29.78 in 10.0 mi SSW 12.7 mph 23.0 mph N/A   Partly Cloudy
4:53 PM 95.0 °F - 45.0 °F 18% 29.77 in 10.0 mi South 16.1 mph 26.5 mph N/A   Clear
5:53 PM 93.0 °F - 45.0 °F 19% 29.77 in 10.0 mi South 19.6 mph 25.3 mph N/A   Clear
6:53 PM 90.0 °F - 46.0 °F 22% 29.77 in 10.0 mi South 12.7 mph - N/A   Clear
7:53 PM 84.0 °F - 46.0 °F 26% 29.78 in 10.0 mi South 10.4 mph - N/A   Clear
8:53 PM 81.0 °F - 46.9 °F 30% 29.81 in 10.0 mi South 13.8 mph - N/A   Clear
9:53 PM 78.1 °F - 46.0 °F 32% 29.82 in 10.0 mi South 15.0 mph - N/A   Clear
10:53 PM 79.0 °F - 50.0 °F 36% 29.81 in 10.0 mi SSE 16.1 mph - N/A   Clear
11:53 PM 77.0 °F - 51.1 °F 40% 29.81 in 10.0 mi SSE 17.3 mph - N/A   Clear